COSMOS 1275 DEB, 12672

Orbit data source: Space-Track

COSMOS 1275 DEB, 12672 is space debris in LEO originally from a launch on Thu, 04 Jun 1981 UTC launched from the Plesetsk Missile And Space Complex (PKMTR). Debris objects in space refer to the collection of defunct objects orbiting the Earth. Examples of debris include non-operational satellites, rocket bodies, and fragments generated from explosions, collisions, or faulty payload assembly.

Loading next visibility...
Identifier
12672, 1981-053AC
Orbit
LEO
Last TLE update
15 hours ago
Origin
Manufacturer
Unknown
Mission
Spacecraft
Bus & Motor
Unknown
Mass
Unknown
Launch date (UTC)
1981-06-04 (44 years ago)
Launch vehicle
Unknown
Launch site
Plesetsk Missile And Space Complex (PKMTR)
Object type
Payload
Rocket body
Debris
Shape & HBR
Unknown
Radar Cross Section
Medium (>0.1 m² and <1 m²)

Expand to show TLE details & history

TLE from 15 hours ago
0 COSMOS 1275 DEB
1 12672U 81053AC  25181.74691250  .00000318  00000-0  27309-3 0  9992
2 12672  82.9420  74.5003 0025718 170.9596 244.2524 13.83646713209808
Epoch: 2025-06-30T17:55Z
TLE epoch observation values (Epoch: 2025-06-30T17:55:33.239Z)
Latitude
54.43029°
Longitude
-103.52288°
Altitude
968.184 km
Speed
7.369 km/s
True Right ascension
05h 37m 40s
True Declination
54° 16' 19"
Sunlit
Object was in daylight at epoch
Visualization orbit readout
Latitude
-82.96142°
Longitude
152.10659°
Altitude
982.752 km
Speed
7.358 km/s
Apparent Right ascension
08h 01m 38s
Apparent Declination
-69° 50' 36"
Sunlit
Object is in daylight
Visualization observer readout
Local Sidereal Time
20:28:41
Azimuth
175.363° S
Elevation
-59.862°
Doppler factor
1
Orbital elements
Apogee altitude
966.959 km
Perigee altitude
929.276 km
Semi-major axis
7,326.255 km
Eccentricity
0.00257
Inclination
82.942°
RAAN
74.5003°
Arg. of periapsis
170.9596°
True anomaly
Unknown
Mean anomaly
244.2524°
Eccentric anomaly
Unknown
Mean motion
3.46115 °/min
Orbital period
104.01 mins
BSTAR
0.00027309
Loading maneuver chart data...
Loading SW <> Apogee altitude chart data...
Loading historical data...
Loading historical data...
Loading historical data...
Loading historical data...
Loading historical data...
Loading historical data...
Loading historical data...

COSMOS 1275 DEB Visibility forecast

Observer location: undefined°, undefined°

Span
Click to sort rows by Start time (UTC) header in descending order
Start Az.
Max El. time (UTC)
Max El. Az.
Max El.
End time (UTC)
End Az.
9 mins2025-07-01 16:20:30.734Z131.898° SE2025-07-01 16:24:30.734Z90.999° ESE20.511°2025-07-01 16:29:30.734Z36.277° NE
10 mins2025-07-01 18:04:30.734Z208.704° SW2025-07-01 18:09:30.734Z284.764° WNW38.097°2025-07-01 18:14:30.734Z354.291° N
5 mins2025-07-02 03:15:30.734Z47.601° ENE2025-07-02 03:17:30.734Z70.649° E15.809°2025-07-02 03:20:30.734Z102.472° ESE
10 mins2025-07-02 04:58:30.734Z345.15° N2025-07-02 05:02:30.734Z282.511° WNW42.951°2025-07-02 05:08:30.734Z184.541° SSW
|